BAW627 EGLL-ESGG

Flight info

Callsign BAW627
Flight time N/A
Altitude 37000
Route BPK Q295 PAAVO M604 GIVPO DCT LARGA DCT SOPTO DCT RERPA DCT KEMEG N866 AAL N607 MAKUR
Aircraft A20N/M-SDE2E3FGHIRWXY/LB1

Departure

Time N/A
Airport London Heathrow Airport (EGLL)

Arrival

Time 2026-05-03 23:13
Airport Göteborg Landvetter Airport (ESGG)
Time Latitude Longitude Altitude Speed Heading
2026-05-03 21:58 52.02388 1.08763 29864 ft 482 kts 44°
2026-05-03 21:58 52.04895 1.12412 30166 ft 485 kts 41°
2026-05-03 21:58 52.07584 1.15767 30458 ft 488 kts 38°
2026-05-03 21:59 52.10317 1.19084 30739 ft 490 kts 38°
2026-05-03 21:59 52.13042 1.22427 31030 ft 492 kts 39°
2026-05-03 21:59 52.15667 1.25904 31376 ft 491 kts 41°
2026-05-03 21:59 52.18276 1.29505 31748 ft 491 kts 41°
2026-05-03 22:00 52.20880 1.33118 32114 ft 491 kts 41°
2026-05-03 22:00 52.23493 1.36723 32457 ft 490 kts 41°
2026-05-03 22:00 52.26112 1.40316 32809 ft 490 kts 41°
2026-05-03 22:00 52.28727 1.43894 33180 ft 489 kts 41°
2026-05-03 22:01 52.31302 1.47417 33558 ft 488 kts 41°
2026-05-03 22:01 52.33899 1.51101 33874 ft 486 kts 45°
2026-05-03 22:01 52.36230 1.55003 34142 ft 485 kts 47°
2026-05-03 22:01 52.38585 1.58966 34415 ft 485 kts 47°
2026-05-03 22:02 52.40945 1.62924 34675 ft 484 kts 47°
2026-05-03 22:02 52.43281 1.66849 34924 ft 484 kts 47°
2026-05-03 22:02 52.45631 1.70806 35170 ft 483 kts 47°
2026-05-03 22:02 52.47979 1.74770 35410 ft 483 kts 47°
2026-05-03 22:03 52.50317 1.78726 35645 ft 483 kts 46°
2026-05-03 22:03 52.52654 1.82687 35877 ft 482 kts 47°
2026-05-03 22:03 52.54989 1.86652 36096 ft 482 kts 47°
2026-05-03 22:03 52.57285 1.90556 36302 ft 482 kts 47°
2026-05-03 22:04 52.59612 1.94520 36499 ft 481 kts 46°
2026-05-03 22:04 52.61938 1.98489 36699 ft 481 kts 46°
2026-05-03 22:04 52.64258 2.02455 36870 ft 481 kts 46°
2026-05-03 22:04 52.66582 2.06433 36908 ft 480 kts 46°
2026-05-03 22:05 52.71186 2.14332 36909 ft 479 kts 46°
2026-05-03 22:05 52.75986 2.21972 36914 ft 480 kts 35°
2026-05-03 22:06 52.81827 2.27327 36912 ft 480 kts 26°
2026-05-03 22:06 52.87785 2.32307 36911 ft 479 kts 26°
2026-05-03 22:07 52.93659 2.37375 36909 ft 479 kts 27°
2026-05-03 22:07 52.99556 2.42542 36917 ft 479 kts 27°
2026-05-03 22:08 53.05449 2.47732 36909 ft 479 kts 27°
2026-05-03 22:08 53.11342 2.52936 36909 ft 479 kts 27°
2026-05-03 22:09 53.17224 2.58146 36905 ft 478 kts 27°
2026-05-03 22:10 53.26010 2.65957 36915 ft 479 kts 27°
2026-05-03 22:10 53.31891 2.71205 36916 ft 479 kts 27°
2026-05-03 22:11 53.37768 2.76467 36915 ft 479 kts 27°
2026-05-03 22:11 53.43648 2.81749 36919 ft 479 kts 27°
2026-05-03 22:12 53.49523 2.87042 36923 ft 479 kts 27°
2026-05-03 22:12 53.55410 2.92362 36921 ft 479 kts 27°
2026-05-03 22:13 53.61246 2.97654 36920 ft 480 kts 27°
2026-05-03 22:13 53.67125 3.03002 36923 ft 480 kts 27°
2026-05-03 22:14 53.73005 3.08368 36929 ft 480 kts 27°
2026-05-03 22:14 53.78882 3.13748 36916 ft 480 kts 27°
2026-05-03 22:15 53.84718 3.19108 36922 ft 480 kts 27°
2026-05-03 22:15 53.90592 3.24520 36923 ft 480 kts 27°
2026-05-03 22:16 53.96473 3.29957 36930 ft 480 kts 27°
2026-05-03 22:16 54.02338 3.35397 36928 ft 480 kts 27°
2026-05-03 22:17 54.08196 3.40846 36927 ft 480 kts 27°
2026-05-03 22:17 54.14055 3.46314 36926 ft 480 kts 27°
2026-05-03 22:18 54.19874 3.51764 36944 ft 480 kts 27°
2026-05-03 22:18 54.25731 3.57267 36928 ft 480 kts 27°
2026-05-03 22:19 54.30607 3.61862 36929 ft 480 kts 27°
2026-05-03 22:19 54.36463 3.67396 36930 ft 480 kts 27°
2026-05-03 22:20 54.42305 3.72936 36933 ft 479 kts 27°
2026-05-03 22:20 54.48143 3.78490 36923 ft 480 kts 27°
2026-05-03 22:21 54.53943 3.84026 36918 ft 480 kts 27°
2026-05-03 22:21 54.59787 3.89622 36924 ft 480 kts 27°
2026-05-03 22:22 54.65624 3.95230 36936 ft 480 kts 27°
2026-05-03 22:22 54.71464 4.00860 36930 ft 481 kts 27°
2026-05-03 22:23 54.77278 4.06484 36932 ft 481 kts 27°
2026-05-03 22:23 54.83085 4.12263 36933 ft 482 kts 32°
2026-05-03 22:24 54.88367 4.19449 36936 ft 484 kts 43°
2026-05-03 22:24 54.92997 4.27941 36930 ft 484 kts 47°
2026-05-03 22:25 54.97593 4.36568 36914 ft 485 kts 47°
2026-05-03 22:25 55.02164 4.45225 36925 ft 485 kts 47°
2026-05-03 22:26 55.06696 4.53874 36931 ft 486 kts 47°
2026-05-03 22:26 55.11251 4.62606 36929 ft 486 kts 47°
2026-05-03 22:27 55.15804 4.71366 36934 ft 486 kts 47°
2026-05-03 22:27 55.20355 4.80154 36944 ft 487 kts 47°
2026-05-03 22:28 55.24871 4.88906 36946 ft 487 kts 47°
2026-05-03 22:28 55.29409 4.97747 36946 ft 487 kts 49°
2026-05-03 22:29 55.33418 5.07348 36949 ft 487 kts 56°
2026-05-03 22:29 55.37257 5.17161 36943 ft 487 kts 55°
2026-05-03 22:30 55.41102 5.26997 36957 ft 487 kts 56°
2026-05-03 22:30 55.44898 5.36786 36947 ft 487 kts 56°
2026-05-03 22:31 55.48709 5.46662 36945 ft 486 kts 56°
2026-05-03 22:31 55.52502 5.56536 36928 ft 486 kts 56°
2026-05-03 22:32 55.56285 5.66421 36929 ft 485 kts 56°
2026-05-03 22:32 55.60058 5.76319 36923 ft 485 kts 56°
2026-05-03 22:33 55.63820 5.86229 36915 ft 485 kts 56°
2026-05-03 22:33 55.67556 5.96110 36919 ft 485 kts 56°
2026-05-03 22:34 55.71306 6.06068 36920 ft 485 kts 56°
2026-05-03 22:34 55.75052 6.16055 36916 ft 485 kts 56°
2026-05-03 22:35 55.78788 6.26059 36909 ft 485 kts 57°
2026-05-03 22:35 55.82493 6.36019 36902 ft 486 kts 57°
2026-05-03 22:36 55.86226 6.46095 36912 ft 486 kts 57°
2026-05-03 22:36 55.89940 6.56161 36907 ft 486 kts 57°
2026-05-03 22:37 55.93654 6.66269 36913 ft 487 kts 57°
2026-05-03 22:37 55.97339 6.76341 36906 ft 487 kts 57°
2026-05-03 22:38 56.01049 6.86523 36911 ft 488 kts 57°
2026-05-03 22:38 56.04721 6.96643 36908 ft 488 kts 57°
2026-05-03 22:39 56.08419 7.06875 36909 ft 488 kts 58°
2026-05-03 22:39 56.12108 7.17130 36914 ft 489 kts 57°
2026-05-03 22:40 56.15765 7.27335 36907 ft 490 kts 58°
2026-05-03 22:40 56.19442 7.37639 36906 ft 489 kts 58°
2026-05-03 22:41 56.23105 7.47949 36898 ft 489 kts 58°
2026-05-03 22:41 56.26758 7.58275 36895 ft 489 kts 58°
2026-05-03 22:42 56.30401 7.68615 36893 ft 489 kts 58°
2026-05-03 22:42 56.34041 7.78990 36902 ft 489 kts 58°
2026-05-03 22:43 56.37651 7.89326 36887 ft 490 kts 58°
2026-05-03 22:43 56.41283 7.99769 36886 ft 490 kts 58°
2026-05-03 22:44 56.44902 8.10217 36859 ft 490 kts 59°
2026-05-03 22:44 56.48489 8.20592 36868 ft 490 kts 58°
2026-05-03 22:45 56.52197 8.30983 36872 ft 490 kts 57°
2026-05-03 22:45 56.55919 8.41362 36895 ft 491 kts 58°
2026-05-03 22:46 56.59629 8.51797 36872 ft 492 kts 58°
2026-05-03 22:46 56.63326 8.62257 36873 ft 492 kts 58°
2026-05-03 22:47 56.67001 8.72702 36870 ft 493 kts 58°
2026-05-03 22:47 56.70687 8.83222 36862 ft 493 kts 58°
2026-05-03 22:48 56.74373 8.93790 36861 ft 494 kts 58°
2026-05-03 22:48 56.78053 9.04387 36865 ft 494 kts 58°
2026-05-03 22:49 56.81713 9.14972 36868 ft 495 kts 58°
2026-05-03 22:49 56.85392 9.25659 36796 ft 496 kts 58°
2026-05-03 22:49 56.87225 9.31000 36545 ft 495 kts 58°
2026-05-03 22:50 56.89027 9.36264 36284 ft 494 kts 59°
2026-05-03 22:50 56.90857 9.41620 35718 ft 497 kts 59°
2026-05-03 22:50 56.92702 9.47027 34803 ft 504 kts 60°
2026-05-03 22:50 56.94571 9.52517 34034 ft 508 kts 60°
2026-05-03 22:51 56.96445 9.58034 33250 ft 508 kts 61°
2026-05-03 22:51 56.98311 9.63538 32449 ft 509 kts 61°
2026-05-03 22:51 57.00153 9.68991 31686 ft 508 kts 61°
2026-05-03 22:51 57.02015 9.74514 30978 ft 507 kts 62°
2026-05-03 22:52 57.03853 9.79976 30451 ft 500 kts 62°
2026-05-03 22:52 57.05676 9.85404 29891 ft 496 kts 62°
2026-05-03 22:52 57.07473 9.90774 29283 ft 490 kts 62°
2026-05-03 22:52 57.09244 9.96082 28728 ft 484 kts 62°
2026-05-03 22:53 57.10829 10.01407 28185 ft 474 kts 69°
2026-05-03 22:53 57.12133 10.06922 27644 ft 467 kts 71°
2026-05-03 22:53 57.13426 10.12381 27093 ft 462 kts 70°
2026-05-03 22:53 57.14710 10.17774 26576 ft 457 kts 70°
2026-05-03 22:54 57.15978 10.23117 26047 ft 453 kts 70°
2026-05-03 22:54 57.17233 10.28426 25526 ft 449 kts 70°
2026-05-03 22:54 57.18469 10.33681 24992 ft 445 kts 70°
2026-05-03 22:54 57.19694 10.38906 24472 ft 442 kts 70°
2026-05-03 22:55 57.20892 10.44031 23963 ft 439 kts 70°
2026-05-03 22:55 57.22094 10.49186 23424 ft 437 kts 70°
2026-05-03 22:55 57.23289 10.54324 23275 ft 438 kts 70°
2026-05-03 22:55 57.24510 10.59594 23165 ft 451 kts 70°
2026-05-03 22:56 57.25741 10.64913 23055 ft 449 kts 70°
2026-05-03 22:56 57.26968 10.70211 22925 ft 447 kts 70°
2026-05-03 22:56 57.28186 10.75489 22834 ft 446 kts 70°
2026-05-03 22:56 57.29386 10.80700 22833 ft 444 kts 70°
2026-05-03 22:57 57.30595 10.85968 22833 ft 444 kts 70°
2026-05-03 22:57 57.31803 10.91245 22833 ft 444 kts 70°
2026-05-03 22:57 57.33005 10.96514 22832 ft 444 kts 70°
2026-05-03 22:57 57.34207 11.01784 22738 ft 442 kts 70°
2026-05-03 22:58 57.35397 11.07022 22359 ft 440 kts 70°
2026-05-03 22:58 57.36575 11.12220 21870 ft 436 kts 70°
2026-05-03 22:58 57.37743 11.17386 21320 ft 432 kts 70°
2026-05-03 22:58 57.38895 11.22498 20780 ft 428 kts 69°
2026-05-03 22:59 57.40023 11.27513 20252 ft 424 kts 69°
2026-05-03 22:59 57.41261 11.32451 19710 ft 421 kts 59°
2026-05-03 22:59 57.43016 11.36793 19046 ft 418 kts 51°
2026-05-03 22:59 57.44840 11.40968 18302 ft 413 kts 51°
2026-05-03 23:00 57.46635 11.45103 17494 ft 408 kts 51°
2026-05-03 23:00 57.48404 11.49184 16685 ft 403 kts 51°
2026-05-03 23:00 57.50150 11.53216 15912 ft 398 kts 51°
2026-05-03 23:00 57.51855 11.57153 15160 ft 393 kts 51°
2026-05-03 23:01 57.53563 11.61102 14435 ft 389 kts 51°
2026-05-03 23:01 57.55249 11.65004 13707 ft 384 kts 51°
2026-05-03 23:01 57.56919 11.68870 12968 ft 379 kts 51°
2026-05-03 23:01 57.58554 11.72660 12274 ft 372 kts 51°
2026-05-03 23:02 57.60162 11.76387 11593 ft 365 kts 51°
2026-05-03 23:02 57.61739 11.80052 10929 ft 359 kts 51°
2026-05-03 23:02 57.63276 11.83630 10282 ft 354 kts 51°
2026-05-03 23:02 57.64783 11.87143 9986 ft 337 kts 51°
2026-05-03 23:03 57.66195 11.90461 9818 ft 317 kts 51°
2026-05-03 23:03 57.67574 11.93536 9528 ft 302 kts 45°
2026-05-03 23:03 57.69055 11.96289 8980 ft 298 kts 43°
2026-05-03 23:03 57.70537 11.98971 8407 ft 295 kts 43°
2026-05-03 23:04 57.72007 12.01628 7859 ft 292 kts 43°
2026-05-03 23:04 57.73465 12.04266 7314 ft 289 kts 43°
2026-05-03 23:04 57.74882 12.06831 6794 ft 286 kts 43°
2026-05-03 23:04 57.76316 12.09427 6201 ft 286 kts 43°
2026-05-03 23:05 57.77760 12.12040 5428 ft 291 kts 43°
2026-05-03 23:05 57.79236 12.14699 4687 ft 298 kts 43°
2026-05-03 23:05 57.80761 12.17433 4090 ft 303 kts 43°
2026-05-03 23:05 57.82250 12.20111 3943 ft 289 kts 43°
2026-05-03 23:06 57.83659 12.22656 3776 ft 271 kts 43°
2026-05-03 23:06 57.84962 12.25011 3633 ft 255 kts 43°
2026-05-03 23:06 57.86113 12.27434 3523 ft 245 kts 61°
2026-05-03 23:06 57.86563 12.30415 3364 ft 235 kts 86°
2026-05-03 23:07 57.86661 12.33469 3098 ft 234 kts 88°
2026-05-03 23:07 57.86736 12.36528 2806 ft 234 kts 92°
2026-05-03 23:07 57.86317 12.39382 2602 ft 223 kts 127°
2026-05-03 23:07 57.85226 12.41428 2528 ft 218 kts 146°
2026-05-03 23:08 57.83917 12.42540 2495 ft 197 kts 175°
2026-05-03 23:08 57.82600 12.42459 2505 ft 194 kts 195°
2026-05-03 23:08 57.81330 12.41684 2497 ft 190 kts 206°
2026-05-03 23:08 57.80134 12.40650 2505 ft 189 kts 209°
2026-05-03 23:09 57.78972 12.39577 2530 ft 178 kts 208°
2026-05-03 23:09 57.77909 12.38608 2496 ft 160 kts 209°
2026-05-03 23:09 57.77272 12.38022 2493 ft 148 kts 209°
2026-05-03 23:09 57.76083 12.36930 2448 ft 146 kts 209°
2026-05-03 23:10 57.75470 12.36370 2301 ft 143 kts 209°
2026-05-03 23:10 57.74580 12.35556 2113 ft 141 kts 209°
2026-05-03 23:10 57.73754 12.34802 1926 ft 128 kts 209°
2026-05-03 23:10 57.72946 12.34060 1763 ft 131 kts 208°
2026-05-03 23:11 57.72129 12.33314 1571 ft 130 kts 208°
2026-05-03 23:11 57.71316 12.32572 1387 ft 130 kts 208°
2026-05-03 23:11 57.70502 12.31820 1174 ft 130 kts 208°
2026-05-03 23:11 57.69683 12.31068 947 ft 130 kts 206°
2026-05-03 23:12 57.68873 12.30311 785 ft 130 kts 207°
2026-05-03 23:12 57.68061 12.29589 658 ft 131 kts 206°
2026-05-03 23:12 57.67263 12.28861 531 ft 119 kts 206°
2026-05-03 23:12 57.66636 12.28296 524 ft 67 kts 206°
2026-05-03 23:13 57.66281 12.27975 517 ft 50 kts 205°
2026-05-03 23:13 57.66145 12.27970 516 ft 14 kts 141°
2026-05-03 23:13 57.66108 12.28125 518 ft 12 kts 85°
2026-05-03 23:13 57.66163 12.28201 518 ft 8 kts 38°
2026-05-03 23:14 57.66213 12.28265 519 ft 9 kts 30°
2026-05-03 23:14 57.66272 12.28320 520 ft 10 kts 25°
2026-05-03 23:14 57.66334 12.28372 520 ft 10 kts 24°
2026-05-03 23:14 57.66401 12.28427 521 ft 11 kts 24°
2026-05-03 23:15 57.66468 12.28493 522 ft 11 kts 29°
2026-05-03 23:15 57.66538 12.28563 522 ft 12 kts 27°
2026-05-03 23:15 57.66613 12.28628 523 ft 12 kts 25°
2026-05-03 23:15 57.66669 12.28729 524 ft 12 kts 85°
2026-05-03 23:16 57.66638 12.28868 524 ft 12 kts 117°
2026-05-03 23:16 57.66607 12.29009 524 ft 10 kts 89°
2026-05-03 23:16 57.66620 12.29053 524 ft 0 kts 24°
2026-05-03 23:16 57.66633 12.29054 524 ft 6 kts
2026-05-03 23:17 57.66687 12.29068 525 ft 9 kts 14°
2026-05-03 23:17 57.66752 12.29119 525 ft 11 kts 24°
2026-05-03 23:17 57.66807 12.29202 526 ft 8 kts 67°
2026-05-03 23:17 57.66789 12.29279 526 ft 7 kts 127°
2026-05-03 23:18 57.66785 12.29295 526 ft 2 kts 114°
2026-05-03 23:18 57.66779 12.29314 526 ft 3 kts 118°
2026-05-03 23:18 57.66779 12.29315 526 ft 0 kts 117°